Regional Weather Roundup
Issued by NWS

Home | Current Version | Previous Version | Text Only | Print | Product List | Glossary On
Versions: 1 2 3 4 5 6 7 8 9 10 11 12 13 14 15 16 17 18 19 20 21 22 23 24 25 26 27 28 29 30 31 32 33 34 35 36 37 38 39 40 41 42 43 44 45 46 47 48 49 50
330
ASUS44 KOUN 290410
RWROK

WEATHER ROUNDUP FOR OKLAHOMA
NATIONAL WEATHER SERVICE NORMAN OK
1100 PM CDT THU JUL 28 2016

NOTE: "FAIR" INDICATES FEW OR NO CLOUDS BELOW 12,000 FEET WITH NO
      SIGNIFICANT WEATHER AND/OR OBSTRUCTIONS TO VISIBILITY.

OKZ001>007-009>012-014-015-017-290500-
NORTHWEST OKLAHOMA AND THE PANHANDLE

CITY           SKY/WX    TMP DP  RH WIND       PRES   REMARKS
GAGE           MOCLDY    80  65  59 SE10      30.00R
GUYMON         CLEAR     78  59  51 SE6       30.01R
ENID/WOODRING  CLOUDY    75  70  83 NE10      29.98F
$$

OKZ016-021>023-033>039-044-045-290500-
SOUTHWEST OKLAHOMA

CITY           SKY/WX    TMP DP  RH WIND       PRES   REMARKS
LAWTON/REGL    CLEAR     86  70  58 S8        29.95R HX  90
LAWTON/FT SILL CLEAR     85  72  64 S7        29.94R HX  90
FREDERICK      PTCLDY    85  68  56 S12       29.92R
CLINTON        CLEAR     83  65  54 E12       30.00R
HOBART         CLEAR     82  69  64 E5        29.98R
ALTUS AFB      CLEAR     82  68  62 SE5       29.95R
$$

OKZ018>020-024>031-290500-
CENTRAL OKLAHOMA

CITY           SKY/WX    TMP DP  RH WIND       PRES   REMARKS
OKLAHOMA CITY  MOCLDY    80  74  81 E5        29.97R
OKC/WILEY POST CLOUDY    83  72  69 NE5       29.97R
OKC/TINKER AFB PTCLDY    80  73  80 E3        29.96R
STILLWATER     CLOUDY    75  70  84 N15       29.99R
GUTHRIE        CLOUDY    76  71  85 NE8       29.99R
$$

OKZ008-013-054>072-290500-
NORTHEAST OKLAHOMA

CITY           SKY/WX    TMP DP  RH WIND       PRES   REMARKS
TULSA          MOCLDY    75  71  87 NW8       29.97R
TULSA/JONES    MOCLDY    74  73  97 NW3       29.98R
PONCA CITY     CLOUDY    75  67  76 E13       29.97F
BARTLESVILLE   MOCLDY    76  69  79 VRB3      30.02R
MUSKOGEE       PTCLDY    75  72  90 NE3       29.97R
$$

OKZ032-040>043-046>053-073>077-290500-
SOUTH CENTRAL/SOUTHEAST OKLAHOMA

CITY           SKY/WX    TMP DP  RH WIND       PRES   REMARKS
ARDMORE/DWNTWN CLEAR     82  68  61 CALM      29.96R
MCALESTER      CLEAR     83  73  72 S6        29.97R
$$





USA.gov is the U.S. government's official web portal to all federal, state and local government web resources and services.